STARLINK-3386, 51126

Orbit data source: Space-Track

STARLINK-3386, 51126 is a payload satellite owned by SpaceX/Seattle (US) in LEO that was launched on Wed, 19 Jan 2022 UTC via an FALCON 9 launch vehicle from the Air Force Eastern Test Range (AFETR). Payload-class satellites include a variety of spacecraft equipped with specific instruments for various scientific and technological missions. These include communications satellites like Starlink; space stations such as the ISS; scientific satellites like the Hubble; Earth observation satellites from companies like Planet Labs, Umbra, and HawkEye 360; GPS; miniature CubeSats for education and research; and military/defense satellites.

Loading next visibility...
Identifier
51126, 2022-005Y
Orbit
LEO
Country
Flag of USUS
Related business
Manufacturer
SpaceX/Seattle
Mission
Operational Commercial Communications
Bus & Motor
STARLINK, Unknown motor
Mass
297 kg wet, ~275 kg dry
Launch date (UTC)
2022-01-19 (4 years ago)
Launch vehicle
FALCON 9
Launch site
Air Force Eastern Test Range (AFETR)
Object type
Payload
Rocket body
Debris
Shape & HBR
Box + 1 Pan, 10.1 m
Radar Cross Section
13.562 m², Large (>1 m²)

Expand to show TLE details & history
Last TLE update: 13 hours ago

TLE from 13 hours ago
0 STARLINK-3386
1 51126U 22005Y   26094.26039265  .00000001  00000-0  18141-4 0  9998
2 51126  53.2171 184.3409 0001457  86.8971 273.2188 15.08834248232608
Epoch: 2026-04-04T06:14Z
TLE epoch observation values (Epoch: 2026-04-04T06:14:57.924Z)
Latitude
-0.00003°
Longitude
-101.9832°
Altitude
540.602 km
Speed
7.593 km/s
True Right ascension
12h 17m 21s
True Declination
0° 00' 00"
Sunlit
Object was in full shadow at epoch
Visualization orbit readout
Latitude
Unknown
Longitude
Unknown
Altitude
Unknown
Speed
Unknown
Apparent Right ascension
Unknown
Apparent Declination
Unknown
Sunlit
N/A
Visualization observer readout
Local Sidereal Time
01:23:16
Azimuth
Unknown
Elevation
Unknown
Doppler factor
Unknown
Orbital elements
Apogee altitude
541.014 km
Perigee altitude
538.998 km
Semi-major axis
6,918.143 km
Eccentricity
0.00015
Inclination
53.2171°
RAAN
184.3409°
Arg. of periapsis
86.8971°
True anomaly
273.20213°
Mean anomaly
273.2188°
Eccentric anomaly
273.21047°
Mean motion
3.77189 °/min
Orbital period
95.44 mins
BSTAR
0.000018141
Loading maneuver chart data...
Computing Atmospheric mass density...
Loading historical data...
Loading historical data...
Loading historical data...
Loading historical data...
Loading historical data...
Loading historical data...
Loading historical data...

Documentation

Showing up to 5 results
|